Highland Valley West (175) Station Data

Red Flag Warning: No
Fire Weather Zone: 250
SDGE Region: Ramona
Lat/Lon: 33.067/-116.99

Observations

Time Wind Speed/Gust Temp(F) RH Fuel Moist Fuel Temp(F) Dewpt(F) Tmax(F) Tmin(F) Accum Precip 10-min Precip SL Press(mb)
2/27 11:40pm 256 7 G 16 51° 98% - - 50° 54.6° 45.7° - - -
2/27 11:20pm 258 4 G 9 51° 98% - - 50° 54.6° 45.7° - - -
2/27 11:10pm 261 3 G 7 51° 98% - - 50° 54.6° 45.7° - - -
2/27 11:00pm 272 2 G 4 51° 98% - - 50° 54.6° 45.7° - - -
2/27 10:50pm 264 2 G 4 51° 97% - - 50° 54.6° 45.7° - - -
2/27 10:40pm 251 3 G 6 51° 97% - - 50° 54.6° 45.7° - - -
2/27 10:30pm 262 4 G 8 51° 97% - - 50° 54.6° 45.7° - - -
2/27 10:20pm 257 5 G 12 51° 97% - - 50° 54.6° 45.7° - - -
2/27 10:10pm 261 6 G 11 51° 97% - - 51° 54.6° 45.7° - - -
2/27 10:00pm 256 7 G 12 52° 96% - - 51° 54.6° 45.7° - - -
2/27 9:50pm 247 8 G 14 52° 96% - - 51° 54.6° 45.7° - - -
2/27 9:40pm 220 8 G 23 52° 95% - - 51° 54.6° 45.7° - - -
2/27 9:30pm 215 7 G 16 52° 95% - - 51° 54.6° 45.7° - - -
2/27 9:20pm 218 7 G 19 53° 96% - - 51° 54.6° 45.7° - - -
2/27 9:10pm 237 8 G 17 52° 96% - - 51° 54.6° 45.7° - - -
2/27 9:00pm 237 8 G 15 53° 96% - - 51° 54.6° 45.7° - - -
2/27 8:50pm 237 9 G 17 53° 96% - - 51° 54.6° 45.7° - - -
2/27 8:40pm 219 7 G 16 53° 95% - - 51° 54.6° 45.7° - - -
2/27 8:30pm 213 6 G 15 53° 95% - - 52° 54.6° 45.7° - - -
2/27 8:20pm 205 5 G 16 53° 96% - - 52° 54.6° 45.7° - - -
2/27 8:10pm 228 6 G 14 53° 96% - - 52° 54.6° 45.7° - - -
2/27 8:00pm 221 7 G 16 53° 96% - - 52° 54.6° 45.7° - - -
2/27 7:50pm 224 10 G 19 53° 96% - - 52° 54.6° 45.7° - - -
2/27 7:40pm 222 8 G 15 53° 96% - - 52° 54.6° 45.7° - - -
2/27 7:30pm 236 9 G 16 53° 96% - - 52° 54.6° 45.7° - - -
2/27 7:20pm 225 6 G 17 53° 96% - - 52° 54.6° 45.7° - - -
2/27 7:10pm 219 7 G 15 53° 96% - - 52° 54.6° 45.7° - - -
2/27 7:00pm 220 7 G 16 53° 97% - - 52° 54.6° 45.7° - - -
2/27 6:50pm 239 6 G 13 53° 97% - - 52° 54.6° 45.7° - - -
2/27 6:40pm 238 6 G 16 53° 96% - - 52° 54.6° 45.7° - - -
2/27 6:30pm 229 7 G 13 53° 96% - - 52° 54.6° 45.7° - - -
2/27 6:20pm 236 7 G 13 53° 96% - - 51° 54.6° 45.7° - - -
2/27 6:10pm 235 8 G 16 53° 96% - - 51° 54.6° 45.7° - - -
2/27 6:00pm 228 7 G 14 53° 96% - - 51° 54.6° 45.7° - - -
2/27 5:50pm 233 9 G 17 53° 96% - - 51° 54.6° 45.7° - - -
2/27 5:40pm 229 8 G 15 53° 96% - - 51° 54.6° 45.7° - - -
2/27 5:30pm 236 7 G 15 53° 95% - - 51° 54.6° 45.7° - - -
2/27 5:20pm 234 10 G 21 53° 94% - - 51° 54.6° 45.7° - - -
2/27 5:10pm 209 7 G 17 53° 92% - - 51° 54.6° 45.7° - - -
2/27 5:00pm 193 8 G 16 53° 92% - - 51° 54.6° 45.7° - - -
2/27 4:50pm 202 7 G 16 53° 92% - - 51° 54.6° 45.7° - - -
2/27 4:40pm 200 10 G 21 53° 93% - - 51° 54.6° 45.7° - - -
2/27 4:30pm 199 8 G 18 53° 94% - - 52° 54.6° 45.7° - - -
2/27 4:20pm 229 7 G 16 53° 94% - - 52° 54.6° 45.7° - - -
2/27 4:10pm 225 7 G 20 53° 93% - - 51° 54.6° 45.7° - - -
2/27 4:00pm 183 6 G 16 54° 92% - - 51° 54.6° 45.7° - - -
2/27 3:50pm 190 9 G 17 54° 92% - - 51° 54.6° 45.7° - - -
2/27 3:40pm 184 8 G 16 54° 92% - - 52° 54.6° 45.7° - - -
2/27 3:30pm 194 8 G 20 54° 92% - - 52° 54.6° 45.7° - - -
2/27 3:20pm 184 12 G 24 54° 91% - - 52° 54.6° 45.7° - - -
2/27 3:10pm 185 10 G 21 54° 91% - - 52° 54.6° 45.7° - - -
2/27 3:00pm 182 12 G 22 54° 92% - - 52° 54.6° 45.7° - - -
2/27 2:50pm 183 14 G 29 54° 93% - - 52° 54.6° 45.7° - - -
2/27 2:40pm 199 11 G 23 54° 94% - - 52° 54.6° 45.7° - - -
2/27 2:30pm 199 9 G 19 54° 94% - - 52° 54.6° 45.7° - - -
2/27 2:20pm 190 11 G 32 54° 95% - - 52° 54.6° 45.7° - - -
2/27 2:10pm 206 11 G 23 54° 95% - - 52° 54.6° 45.7° - - -
2/27 2:00pm 205 8 G 21 53° 96% - - 52° 54.6° 45.7° - - -
2/27 1:50pm 219 7 G 17 53° 96% - - 52° 54.6° 45.7° - - -
2/27 1:40pm 234 8 G 16 53° 96% - - 52° 54.6° 45.7° - - -
2/27 1:30pm 220 6 G 17 53° 95% - - 52° 54.6° 45.7° - - -
2/27 1:20pm 199 7 G 14 53° 94% - - 52° 54.6° 45.7° - - -
2/27 1:10pm 206 9 G 17 53° 94% - - 52° 54.6° 45.7° - - -
2/27 1:00pm 202 7 G 21 54° 94% - - 52° 54.6° 45.7° - - -
2/27 12:50pm 197 8 G 17 54° 94% - - 52° 54.6° 45.7° - - -
2/27 12:40pm 194 7 G 27 54° 94% - - 52° 54.6° 45.7° - - -
2/27 12:30pm 209 9 G 17 54° 94% - - 52° 54.6° 45.7° - - -
2/27 12:20pm 201 9 G 17 54° 94% - - 52° 54.6° 45.7° - - -
2/27 12:10pm 201 8 G 22 53° 94% - - 52° 54.6° 45.7° - - -
2/27 12:00pm 205 9 G 20 53° 94% - - 51° 54.6° 45.7° - - -
2/27 11:50am 199 8 G 17 53° 92% - - 51° 54.6° 45.7° - - -
2/27 11:40am 184 12 G 23 53° 92% - - 51° 54.6° 45.7° - - -
2/27 11:30am 175 11 G 22 53° 92% - - 51° 54.6° 45.7° - - -
2/27 11:20am 183 8 G 20 53° 93% - - 51° 54.6° 45.7° - - -
2/27 11:10am 188 4 G 16 53° 94% - - 51° 54.6° 45.7° - - -
2/27 11:00am 178 7 G 17 53° 95% - - 52° 54.6° 45.7° - - -
2/27 10:50am 193 6 G 14 53° 95% - - 52° 54.6° 45.7° - - -
2/27 10:40am 215 7 G 18 53° 95% - - 52° 54.6° 45.7° - - -
2/27 10:30am 215 8 G 17 53° 95% - - 52° 54.6° 45.7° - - -
2/27 10:20am 223 9 G 19 54° 95% - - 52° 54.6° 45.7° - - -
2/27 10:10am 227 8 G 19 54° 95% - - 52° 54.6° 45.7° - - -
2/27 10:00am 208 9 G 20 54° 94% - - 52° 54.6° 45.7° - - -
2/27 9:50am 191 10 G 24 54° 95% - - 52° 54.6° 45.7° - - -
2/27 9:40am 213 7 G 13 54° 95% - - 53° 54.6° 45.7° - - -
2/27 9:30am 207 7 G 19 54° 95% - - 52° 54.6° 45.7° - - -
2/27 9:20am 211 7 G 14 54° 95% - - 52° 54.6° 45.7° - - -
2/27 9:10am 212 6 G 13 54° 94% - - 52° 54.6° 45.7° - - -
2/27 9:00am 203 9 G 22 54° 94% - - 52° 54.6° 45.7° - - -
2/27 8:50am 192 6 G 19 54° 95% - - 53° 54.6° 45.7° - - -
2/27 8:40am 198 7 G 14 54° 94% - - 53° 54.6° 45.7° - - -
2/27 8:30am 193 7 G 16 54° 94% - - 53° 54.6° 45.7° - - -
2/27 8:20am 193 7 G 13 54° 95% - - 53° 54.6° 45.7° - - -
2/27 8:10am 199 7 G 15 54° 95% - - 53° 54.6° 45.7° - - -
2/27 8:00am 205 5 G 11 54° 95% - - 53° 54.6° 45.7° - - -
2/27 7:50am 214 7 G 15 54° 95% - - 53° 54.6° 45.7° - - -
2/27 7:40am 222 6 G 12 54° 96% - - 53° 54.5° 45.7° - - -
2/27 7:30am 223 7 G 16 54° 96% - - 53° 54.5° 45.7° - - -
2/27 7:20am 246 5 G 11 54° 95% - - 53° 54.5° 45.7° - - -
2/27 7:10am 232 6 G 11 54° 95% - - 53° 54.5° 45.7° - - -
2/27 7:00am 215 6 G 14 54° 95% - - 53° 54.5° 45.7° - - -
2/27 6:50am 206 7 G 18 54° 94% - - 53° 54.5° 45.7° - - -
2/27 6:40am 195 7 G 18 54° 94% - - 52° 54.5° 45.7° - - -
2/27 6:30am 200 6 G 17 54° 94% - - 52° 54.5° 45.7° - - -
2/27 6:20am 209 6 G 18 54° 95% - - 52° 54.3° 45.7° - - -
2/27 6:10am 201 4 G 12 54° 94% - - 52° 54.3° 45.7° - - -
2/27 6:00am 230 5 G 11 53° 94% - - 52° 54.3° 45.7° - - -
2/27 5:50am 226 5 G 10 53° 94% - - 52° 54.3° 45.7° - - -
2/27 5:40am 232 4 G 12 53° 94% - - 51° 54.3° 45.7° - - -
2/27 5:30am 200 4 G 9 53° 94% - - 51° 54.3° 45.7° - - -
2/27 5:20am 195 4 G 13 53° 93% - - 51° 54.3° 45.7° - - -
2/27 5:10am 195 7 G 16 53° 93% - - 51° 54.3° 45.7° - - -
2/27 5:00am 214 6 G 18 53° 92% - - 51° 54.3° 45.7° - - -
2/27 4:50am 183 7 G 17 53° 95% - - 51° 54° 45.7° - - -
2/27 4:40am 107 7 G 15 51° 95% - - 49° 51.3° 45.7° - - -
2/27 4:30am 103 9 G 16 49° 96% - - 48° 50.8° 45.7° - - -
2/27 4:20am 105 8 G 13 49° 96% - - 48° 49.3° 45.7° - - -
2/27 4:10am 103 6 G 11 48° 97% - - 48° 49° 45.7° - - -
2/27 4:00am 102 5 G 7 48° 97% - - 47° 48.8° 45.7° - - -
2/27 3:50am 103 6 G 8 48° 97% - - 47° 48.6° 45.7° - - -
2/27 3:40am 97 7 G 9 48° 97% - - 47° 48.4° 45.7° - - -
2/27 3:30am 91 5 G 7 48° 97% - - 47° 48.2° 45.7° - - -
2/27 3:20am 93 6 G 8 48° 97% - - 47° 48° 45.7° - - -
2/27 3:10am 85 6 G 7 47° 96% - - 46° 48° 45.7° - - -
2/27 3:00am 76 5 G 7 47° 96% - - 46° 47.7° 45.7° - - -
2/27 2:50am 78 5 G 7 47° 96% - - 46° 47.7° 45.7° - - -
2/27 2:40am 69 4 G 6 47° 96% - - 46° 47.6° 45.7° - - -
2/27 2:30am 74 5 G 7 47° 96% - - 46° 47.6° 45.7° - - -
2/27 2:20am 76 4 G 6 47° 95% - - 46° 47.6° 45.7° - - -
2/27 2:10am 82 5 G 6 47° 95% - - 45° 47.6° 45.7° - - -
2/27 2:00am 88 6 G 8 47° 95% - - 45° 47.6° 45.7° - - -
2/27 1:50am 94 6 G 8 47° 95% - - 45° 47.6° 45.7° - - -
2/27 1:40am 97 7 G 9 47° 95% - - 45° 47.6° 45.7° - - -
2/27 1:30am 103 7 G 10 47° 95% - - 45° 47.6° 45.7° - - -
2/27 1:20am 102 7 G 11 46° 94% - - 45° 47.6° 45.7° - - -
2/27 1:10am 94 7 G 10 46° 94% - - 45° 47.6° 45.7° - - -
2/27 1:00am 92 6 G 8 46° 94% - - 44° 47.6° 45.7° - - -
2/27 12:50am 92 7 G 9 46° 93% - - 44° 47.6° 45.8° - - -
2/27 12:40am 92 6 G 9 46° 92% - - 44° 47.6° 45.8° - - -
2/27 12:30am 95 5 G 7 47° 89% - - 44° 47.6° 46.1° - - -
2/27 12:20am 88 4 G 5 47° 86% - - 43° 47.6° 46.5° - - -
2/27 12:10am 87 4 G 7 47° 85% - - 43° 47.4° 46.5° - - -
2/27 12:00am 82 5 G 7 47° 84% - - 42° 55° 44.4° - - -
2/26 11:50pm 82 5 G 7 47° 84% - - 42° 55° 44.4° - - -
2/26 11:40pm 73 5 G 6 47° 83% - - 42° 55° 44.4° - - -
2/26 11:30pm 72 4 G 5 46° 84% - - 42° 55° 44.4° - - -
2/26 11:20pm 76 5 G 6 46° 85% - - 42° 55° 44.4° - - -
2/26 11:10pm 76 4 G 5 46° 86% - - 42° 55° 44.4° - - -
2/26 11:00pm 88 4 G 5 46° 86% - - 42° 55° 44.4° - - -
2/26 10:50pm 111 4 G 5 45° 87% - - 42° 55° 44.4° - - -
2/26 10:40pm 104 4 G 6 45° 87% - - 41° 55° 44.4° - - -
2/26 10:30pm 79 4 G 6 45° 86% - - 41° 55° 44.4° - - -
2/26 10:20pm 77 4 G 5 45° 84% - - 40° 55° 44.4° - - -
2/26 10:10pm 80 3 G 4 46° 81% - - 41° 55° 45.3° - - -
2/26 10:00pm 59 2 G 3 46° 81% - - 41° 55° 45.4° - - -
2/26 9:50pm 58 2 G 4 46° 81% - - 41° 55° 45.4° - - -
2/26 9:40pm 77 2 G 3 47° 79% - - 40° 55° 45.7° - - -
2/26 9:30pm 54 1 G 2 47° 79% - - 41° 55° 45.7° - - -
2/26 9:20pm 63 0 G 1 46° 80% - - 40° 55° 45.7° - - -
2/26 9:10pm 120 2 G 3 46° 80% - - 40° 55° 45.7° - - -
2/26 9:00pm 80 1 G 2 47° 78% - - 40° 55° 46.3° - - -
2/26 8:50pm 175 0 G 2 47° 78% - - 41° 55° 46.5° - - -
2/26 8:40pm 291 0 G 2 47° 79% - - 41° 55° 46.5° - - -
2/26 8:30pm 178 0 G 1 47° 79% - - 41° 55° 46.6° - - -
2/26 8:20pm 324 0 G 2 47° 80% - - 42° 55° 46.6° - - -
2/26 8:10pm 259 1 G 3 48° 81% - - 42° 55° 46.6° - - -
2/26 8:00pm 265 1 G 4 48° 82% - - 43° 55° 46.6° - - -
2/26 7:50pm 244 2 G 4 48° 83% - - 43° 55° 46.6° - - -
2/26 7:40pm 240 2 G 4 48° 82% - - 43° 55° 46.6° - - -
2/26 7:30pm 272 2 G 4 48° 82% - - 43° 55° 46.6° - - -
2/26 7:20pm 258 1 G 3 48° 82% - - 43° 55° 46.6° - - -
2/26 7:10pm 295 1 G 3 48° 84% - - 43° 55° 46.6° - - -
2/26 7:00pm 319 0 G 1 48° 84% - - 43° 55° 46.6° - - -
2/26 6:50pm 118 0 G 1 48° 84% - - 43° 55° 46.6° - - -
2/26 6:40pm 274 1 G 2 48° 84% - - 43° 55° 46.6° - - -
2/26 6:30pm 275 0 G 2 48° 83% - - 43° 55° 46.6° - - -
2/26 6:20pm 273 1 G 2 49° 81% - - 43° 55° 46.6° - - -
2/26 6:10pm 269 2 G 4 49° 77% - - 42° 55° 46.6° - - -
2/26 6:00pm 254 3 G 6 50° 75% - - 42° 55° 46.6° - - -
2/26 5:50pm 236 3 G 7 51° 77% - - 44° 55° 46.6° - - -
2/26 5:40pm 189 5 G 10 51° 75% - - 43° 55° 46.6° - - -
2/26 5:30pm 208 4 G 9 51° 73% - - 43° 55° 46.6° - - -
2/26 5:20pm 200 5 G 11 51° 73% - - 43° 55° 46.6° - - -
2/26 5:10pm 197 6 G 12 51° 74% - - 43° 55° 46.6° - - -
2/26 5:00pm 188 5 G 13 52° 76% - - 44° 55° 46.6° - - -